Location: Newark
(21.1200°N, 73.4000°E)
Time: 01:50:40
(UTC+00:00)

Explorer 11/Cluster Stage 4 - Pass Details

Date: 27 January 2020
Orbit: 467 x 1259 km, 28.8° (Epoch: 19 February)

Event Time Altitude Azimuth Distance (km) Brightness Sun altitude
Rises 11:41:47 0° 290° (WNW) 4,163 11.0 14.5°
Reaches altitude 10° 11:44:54 10° 294° (WNW) 3,144 10.3 13.8°
Maximum altitude 11:52:38 56° 11° (N) 1,268 7.6 12.2°
Drops below altitude 10° 11:59:07 10° 89° (E) 2,658 8.8 10.8°
Sets 12:01:34 0° 93° (E) 3,482 9.4 10.3°
